Year,Month,Day,Hour,Minute,Value (Times are PST for temperature in C)
2015,01,29,00,00,4.00
2015,01,29,00,01,4.00
2015,01,29,00,02,3.90
2015,01,29,00,03,3.90
2015,01,29,00,04,3.80
2015,01,29,00,05,3.80
2015,01,29,00,06,3.80
2015,01,29,00,07,3.80
2015,01,29,00,08,3.80
2015,01,29,00,09,3.80
2015,01,29,00,10,3.80
2015,01,29,00,11,3.80
2015,01,29,00,12,3.80
2015,01,29,00,13,3.90
2015,01,29,00,14,3.90
2015,01,29,00,15,3.90
2015,01,29,00,16,3.90
2015,01,29,00,17,4.00
2015,01,29,00,18,4.00
2015,01,29,00,19,4.00
2015,01,29,00,20,4.10
2015,01,29,00,21,4.10
2015,01,29,00,22,4.10
2015,01,29,00,23,4.10
2015,01,29,00,24,4.20
2015,01,29,00,25,4.20
2015,01,29,00,26,4.20
2015,01,29,00,27,4.20
2015,01,29,00,28,4.20
2015,01,29,00,29,4.20
2015,01,29,00,30,4.20
2015,01,29,00,31,4.20
2015,01,29,00,32,4.20
2015,01,29,00,33,4.20
2015,01,29,00,34,4.20
2015,01,29,00,35,4.20
2015,01,29,00,36,4.20
2015,01,29,00,37,4.20
2015,01,29,00,38,4.20
2015,01,29,00,39,4.20
2015,01,29,00,40,4.20
2015,01,29,00,41,4.20
2015,01,29,00,42,4.20
2015,01,29,00,43,4.30
2015,01,29,00,44,4.30
2015,01,29,00,45,4.30
2015,01,29,00,46,4.30
2015,01,29,00,47,4.30
2015,01,29,00,48,4.30
2015,01,29,00,49,4.30
2015,01,29,00,50,4.30
2015,01,29,00,51,4.30
2015,01,29,00,52,4.30
2015,01,29,00,53,4.30
2015,01,29,00,54,4.30
2015,01,29,00,55,4.20
2015,01,29,00,56,4.20
2015,01,29,00,57,4.20
2015,01,29,00,58,4.10
2015,01,29,00,59,4.10
2015,01,29,01,00,4.10
2015,01,29,01,01,4.10
2015,01,29,01,02,4.10
2015,01,29,01,03,4.10
2015,01,29,01,04,4.10
2015,01,29,01,05,4.10
2015,01,29,01,06,4.10
2015,01,29,01,07,4.00
2015,01,29,01,08,4.00
2015,01,29,01,09,3.90
2015,01,29,01,10,3.90
2015,01,29,01,11,3.90
2015,01,29,01,12,3.80
2015,01,29,01,13,3.80
2015,01,29,01,14,3.80
2015,01,29,01,15,3.80
2015,01,29,01,16,3.70
2015,01,29,01,17,3.70
2015,01,29,01,18,3.70
2015,01,29,01,19,3.70
2015,01,29,01,20,3.80
2015,01,29,01,21,3.80
2015,01,29,01,22,3.80
2015,01,29,01,23,3.90
2015,01,29,01,24,3.90
2015,01,29,01,25,3.90
2015,01,29,01,26,3.90
2015,01,29,01,27,4.00
2015,01,29,01,28,4.00
2015,01,29,01,29,4.00
2015,01,29,01,30,4.00
2015,01,29,01,31,4.00
2015,01,29,01,32,4.00
2015,01,29,01,33,4.10
2015,01,29,01,34,4.10
2015,01,29,01,35,4.10
2015,01,29,01,36,4.10
2015,01,29,01,37,4.10
2015,01,29,01,38,4.10
2015,01,29,01,39,4.10
2015,01,29,01,40,4.10
2015,01,29,01,41,4.10
2015,01,29,01,42,4.10
2015,01,29,01,43,4.20
2015,01,29,01,44,4.20
2015,01,29,01,45,4.20
2015,01,29,01,46,4.20
2015,01,29,01,47,4.20
2015,01,29,01,48,4.20
2015,01,29,01,49,4.20
2015,01,29,01,50,4.20
2015,01,29,01,51,4.20
2015,01,29,01,52,4.20
2015,01,29,01,53,4.20
2015,01,29,01,54,4.20
2015,01,29,01,55,4.30
2015,01,29,01,56,4.30
2015,01,29,01,57,4.20
2015,01,29,01,58,4.20
2015,01,29,01,59,4.20
2015,01,29,02,00,4.20
2015,01,29,02,01,4.20
2015,01,29,02,02,4.20
2015,01,29,02,03,4.20
2015,01,29,02,04,4.20
2015,01,29,02,05,4.20
2015,01,29,02,06,4.20
2015,01,29,02,07,4.20
2015,01,29,02,08,4.20
2015,01,29,02,09,4.20
2015,01,29,02,10,4.20
2015,01,29,02,11,4.20
2015,01,29,02,12,4.20
2015,01,29,02,13,4.20
2015,01,29,02,14,4.20
2015,01,29,02,15,4.20
2015,01,29,02,16,4.10
2015,01,29,02,17,4.10
2015,01,29,02,18,4.10
2015,01,29,02,19,4.10
2015,01,29,02,20,4.10
2015,01,29,02,21,4.10
2015,01,29,02,22,4.10
2015,01,29,02,23,4.10
2015,01,29,02,24,4.10
2015,01,29,02,25,4.00
2015,01,29,02,26,4.00
2015,01,29,02,27,4.00
2015,01,29,02,28,4.00
2015,01,29,02,29,4.00
2015,01,29,02,30,4.00
2015,01,29,02,31,4.00
2015,01,29,02,32,4.00
2015,01,29,02,33,4.00
2015,01,29,02,34,4.00
2015,01,29,02,35,4.00
2015,01,29,02,36,4.00
2015,01,29,02,37,4.10
2015,01,29,02,38,4.10
2015,01,29,02,39,4.10
2015,01,29,02,40,4.20
2015,01,29,02,41,4.20
2015,01,29,02,42,4.20
2015,01,29,02,43,4.20
2015,01,29,02,44,4.20
2015,01,29,02,45,4.20
2015,01,29,02,46,4.20
2015,01,29,02,47,4.20
2015,01,29,02,48,4.20
2015,01,29,02,49,4.20
2015,01,29,02,50,4.20
2015,01,29,02,51,4.20
2015,01,29,02,52,4.20
2015,01,29,02,53,4.20
2015,01,29,02,54,4.20
2015,01,29,02,55,4.20
2015,01,29,02,56,4.20
2015,01,29,02,57,4.20
2015,01,29,02,58,4.20
2015,01,29,02,59,4.20
2015,01,29,03,00,4.20
2015,01,29,03,01,4.20
2015,01,29,03,02,4.20
2015,01,29,03,03,4.20
2015,01,29,03,04,4.20
2015,01,29,03,05,4.20
2015,01,29,03,06,4.20
2015,01,29,03,07,4.20
2015,01,29,03,08,4.20
2015,01,29,03,09,4.30
2015,01,29,03,10,4.30
2015,01,29,03,11,4.30
2015,01,29,03,12,4.30
2015,01,29,03,13,4.30
2015,01,29,03,14,4.30
2015,01,29,03,15,4.30
2015,01,29,03,16,4.30
2015,01,29,03,17,4.40
2015,01,29,03,18,4.40
2015,01,29,03,19,4.40
2015,01,29,03,20,4.40
2015,01,29,03,21,4.40
2015,01,29,03,22,4.40
2015,01,29,03,23,4.40
2015,01,29,03,24,4.40
2015,01,29,03,25,4.40
2015,01,29,03,26,4.40
2015,01,29,03,27,4.40
2015,01,29,03,28,4.40
2015,01,29,03,29,4.40
2015,01,29,03,30,4.40
2015,01,29,03,31,4.40
2015,01,29,03,32,4.40
2015,01,29,03,33,4.40
2015,01,29,03,34,4.40
2015,01,29,03,35,4.40
2015,01,29,03,36,4.40
2015,01,29,03,37,4.40
2015,01,29,03,38,4.40
2015,01,29,03,39,4.40
2015,01,29,03,40,4.40
2015,01,29,03,41,4.40
2015,01,29,03,42,4.40
2015,01,29,03,43,4.40
2015,01,29,03,44,4.40
2015,01,29,03,45,4.40
2015,01,29,03,46,4.40
2015,01,29,03,47,4.40
2015,01,29,03,48,4.40
2015,01,29,03,49,4.50
2015,01,29,03,50,4.50
2015,01,29,03,51,4.50
2015,01,29,03,52,4.50
2015,01,29,03,53,4.50
2015,01,29,03,54,4.50
2015,01,29,03,55,4.50
2015,01,29,03,56,4.50
2015,01,29,03,57,4.60
2015,01,29,03,58,4.60
2015,01,29,03,59,4.60
2015,01,29,04,00,4.60
2015,01,29,04,01,4.60
2015,01,29,04,02,4.60
2015,01,29,04,03,4.60
2015,01,29,05,02,4.60
2015,01,29,05,03,4.60
2015,01,29,05,04,4.60
2015,01,29,05,05,4.50
2015,01,29,05,06,4.50
2015,01,29,05,07,4.50
2015,01,29,05,08,4.50
2015,01,29,05,09,4.50
2015,01,29,05,10,4.50
2015,01,29,05,11,4.50
2015,01,29,05,12,4.50
2015,01,29,05,13,4.50
2015,01,29,05,14,4.50
2015,01,29,05,15,4.50
2015,01,29,05,16,4.50
2015,01,29,05,17,4.50
2015,01,29,05,18,4.50
2015,01,29,05,19,4.50
2015,01,29,05,20,4.50
2015,01,29,05,21,4.50
2015,01,29,05,22,4.50
2015,01,29,05,23,4.50
2015,01,29,05,24,4.50
2015,01,29,05,25,4.50
2015,01,29,05,26,4.50
2015,01,29,05,27,4.40
2015,01,29,05,28,4.40
2015,01,29,05,29,4.40
2015,01,29,05,30,4.40
2015,01,29,05,31,4.40
2015,01,29,05,32,4.30
2015,01,29,05,33,4.30
2015,01,29,05,34,4.30
2015,01,29,05,35,4.30
2015,01,29,05,36,4.30
2015,01,29,05,37,4.30
2015,01,29,05,38,4.30
2015,01,29,05,39,4.30
2015,01,29,05,40,4.30
2015,01,29,05,41,4.30
2015,01,29,05,42,4.30
2015,01,29,05,43,4.30
2015,01,29,05,44,4.30
2015,01,29,05,45,4.30
2015,01,29,05,46,4.30
2015,01,29,05,47,4.30
2015,01,29,05,48,4.30
2015,01,29,05,49,4.30
2015,01,29,05,50,4.30
2015,01,29,05,51,4.30
2015,01,29,05,52,4.30
2015,01,29,05,53,4.30
2015,01,29,05,54,4.30
2015,01,29,05,55,4.30
2015,01,29,05,56,4.30
2015,01,29,05,57,4.30
2015,01,29,05,58,4.30
2015,01,29,05,59,4.30
2015,01,29,06,00,4.30
2015,01,29,06,01,4.30
2015,01,29,06,02,4.40
2015,01,29,06,03,4.40
2015,01,29,06,04,4.40
2015,01,29,06,05,4.40
2015,01,29,06,06,4.40
2015,01,29,06,07,4.40
2015,01,29,06,08,4.40
2015,01,29,06,09,4.40
2015,01,29,06,10,4.40
2015,01,29,06,11,4.40
2015,01,29,06,12,4.40
2015,01,29,06,13,4.40
2015,01,29,06,14,4.40
2015,01,29,06,15,4.50
2015,01,29,06,16,4.50
2015,01,29,06,17,4.50
2015,01,29,06,18,4.50
2015,01,29,06,19,4.50
2015,01,29,06,20,4.60
2015,01,29,06,21,4.60
2015,01,29,06,22,4.60
2015,01,29,06,23,4.60
2015,01,29,06,24,4.60
2015,01,29,06,25,4.60
2015,01,29,06,26,4.60
2015,01,29,06,27,4.50
2015,01,29,06,28,4.50
2015,01,29,06,29,4.50
2015,01,29,06,30,4.50
2015,01,29,06,31,4.50
2015,01,29,06,32,4.50
2015,01,29,06,33,4.50
2015,01,29,06,34,4.60
2015,01,29,06,35,4.60
2015,01,29,06,36,4.60
2015,01,29,06,37,4.60
2015,01,29,06,38,4.50
2015,01,29,06,39,4.50
2015,01,29,06,40,4.50
2015,01,29,06,41,4.40
2015,01,29,06,42,4.40
2015,01,29,06,43,4.30
2015,01,29,06,44,4.30
2015,01,29,06,45,4.30
2015,01,29,06,46,4.30
2015,01,29,06,47,4.30
2015,01,29,06,48,4.30
2015,01,29,06,49,4.30
2015,01,29,06,50,4.30
2015,01,29,06,51,4.20
2015,01,29,06,52,4.20
2015,01,29,06,53,4.20
2015,01,29,06,54,4.20
2015,01,29,06,55,4.20
2015,01,29,06,56,4.20
2015,01,29,06,57,4.10
2015,01,29,06,58,4.10
2015,01,29,06,59,4.10
2015,01,29,07,00,4.10
2015,01,29,07,01,4.00
2015,01,29,07,02,4.00
2015,01,29,07,03,4.00
2015,01,29,07,04,4.10
2015,01,29,07,05,4.10
2015,01,29,07,06,4.10
2015,01,29,07,07,4.00
2015,01,29,07,08,4.00
2015,01,29,07,09,4.00
2015,01,29,07,10,3.90
2015,01,29,07,11,3.90
2015,01,29,07,12,3.90
2015,01,29,07,13,3.90
2015,01,29,07,14,3.90
2015,01,29,07,15,3.80
2015,01,29,07,16,3.90
2015,01,29,07,17,3.90
2015,01,29,07,18,4.00
2015,01,29,07,19,4.10
2015,01,29,07,20,4.10
2015,01,29,07,21,4.20
2015,01,29,07,22,4.20
2015,01,29,07,23,4.20
2015,01,29,07,24,4.30
2015,01,29,07,25,4.40
2015,01,29,07,26,4.40
2015,01,29,07,27,4.50
2015,01,29,07,28,4.50
2015,01,29,07,29,4.60
2015,01,29,07,30,4.60
2015,01,29,07,31,4.60
2015,01,29,07,32,4.60
2015,01,29,07,33,4.60
2015,01,29,07,34,4.60
2015,01,29,07,35,4.60
2015,01,29,07,36,4.60
2015,01,29,07,37,4.60
2015,01,29,07,38,4.60
2015,01,29,07,39,4.60
2015,01,29,07,40,4.60
2015,01,29,07,41,4.60
2015,01,29,07,42,4.60
2015,01,29,07,43,4.60
2015,01,29,07,44,4.60
2015,01,29,07,45,4.50
2015,01,29,07,46,4.50
2015,01,29,07,47,4.50
2015,01,29,07,48,4.50
2015,01,29,07,49,4.50
2015,01,29,07,50,4.50
2015,01,29,07,51,4.40
2015,01,29,07,52,4.40
2015,01,29,07,53,4.40
2015,01,29,07,54,4.40
2015,01,29,07,55,4.40
2015,01,29,07,56,4.40
2015,01,29,07,57,4.40
2015,01,29,07,58,4.40
2015,01,29,07,59,4.40
2015,01,29,08,00,4.40
2015,01,29,08,01,4.40
2015,01,29,08,02,4.40
2015,01,29,08,03,4.40
2015,01,29,08,04,4.40
2015,01,29,08,05,4.40
2015,01,29,08,06,4.40
2015,01,29,08,07,4.40
2015,01,29,08,08,4.40
2015,01,29,08,09,4.40
2015,01,29,08,10,4.40
2015,01,29,08,11,4.40
2015,01,29,08,12,4.40
2015,01,29,08,13,4.50
2015,01,29,08,14,4.50
2015,01,29,08,15,4.50
2015,01,29,08,16,4.50
2015,01,29,08,17,4.50
2015,01,29,08,18,4.60
2015,01,29,08,19,4.60
2015,01,29,08,20,4.60
2015,01,29,08,21,4.70
2015,01,29,08,22,4.70
2015,01,29,08,23,4.70
2015,01,29,08,24,4.70
2015,01,29,08,25,4.70
2015,01,29,08,26,4.80
2015,01,29,08,27,4.80
2015,01,29,08,28,4.80
2015,01,29,08,29,4.80
2015,01,29,08,30,4.80
2015,01,29,08,31,4.80
2015,01,29,08,32,4.80
2015,01,29,08,33,4.80
2015,01,29,08,34,4.80
2015,01,29,08,35,4.80
2015,01,29,08,36,4.80
2015,01,29,08,37,4.80
2015,01,29,08,38,4.80
2015,01,29,08,39,4.80
2015,01,29,08,40,4.80
2015,01,29,08,41,4.90
2015,01,29,08,42,4.90
2015,01,29,08,43,4.90
2015,01,29,08,44,4.90
2015,01,29,08,45,4.90
2015,01,29,08,46,5.00
2015,01,29,08,47,4.90
2015,01,29,08,48,4.90
2015,01,29,08,49,4.90
2015,01,29,08,50,4.90
2015,01,29,08,51,4.90
2015,01,29,08,52,4.90
2015,01,29,08,53,4.90
2015,01,29,08,54,4.90
2015,01,29,08,55,4.90
2015,01,29,08,56,4.90
2015,01,29,08,57,4.90
2015,01,29,08,58,5.00
2015,01,29,08,59,5.00
2015,01,29,09,00,5.00
2015,01,29,09,01,5.00
2015,01,29,09,02,5.10
2015,01,29,09,03,5.00
2015,01,29,09,04,5.00
2015,01,29,09,05,4.90
2015,01,29,09,06,4.90
2015,01,29,09,07,4.80
2015,01,29,09,08,4.80
2015,01,29,09,09,4.80
2015,01,29,09,10,4.80
2015,01,29,09,11,4.80
2015,01,29,09,12,4.80
2015,01,29,09,13,4.90
2015,01,29,09,14,4.90
2015,01,29,09,15,4.90
2015,01,29,09,16,4.90
2015,01,29,09,17,4.90
2015,01,29,09,18,4.90
2015,01,29,09,19,4.90
2015,01,29,09,20,4.90
2015,01,29,09,21,4.90
2015,01,29,09,22,4.90
2015,01,29,09,23,4.90
2015,01,29,09,24,4.90
2015,01,29,09,25,4.90
2015,01,29,09,26,4.90
2015,01,29,09,27,4.90
2015,01,29,09,28,5.00
2015,01,29,09,29,5.00
2015,01,29,09,30,5.00
2015,01,29,09,31,5.00
2015,01,29,09,32,5.10
2015,01,29,09,33,5.10
2015,01,29,09,34,5.10
2015,01,29,09,35,5.10
2015,01,29,09,36,5.10
2015,01,29,09,37,5.20
2015,01,29,09,38,5.20
2015,01,29,09,39,5.20
2015,01,29,09,40,5.20
2015,01,29,09,41,5.20
2015,01,29,09,42,5.20
2015,01,29,09,43,5.30
2015,01,29,09,44,5.30
2015,01,29,09,45,5.30
2015,01,29,09,46,5.30
2015,01,29,09,47,5.30
2015,01,29,09,48,5.30
2015,01,29,09,49,5.30
2015,01,29,09,50,5.30
2015,01,29,09,51,5.30
2015,01,29,09,52,5.30
2015,01,29,09,53,5.30
2015,01,29,09,54,5.30
2015,01,29,09,55,5.30
2015,01,29,09,56,5.30
2015,01,29,09,57,5.30
2015,01,29,09,58,5.40
2015,01,29,09,59,5.40
2015,01,29,10,00,5.40
2015,01,29,10,01,5.40
2015,01,29,10,02,5.40
2015,01,29,10,03,5.40
2015,01,29,10,04,5.40
2015,01,29,10,05,5.40
2015,01,29,10,06,5.40
2015,01,29,10,07,5.50
2015,01,29,10,08,5.50
2015,01,29,10,09,5.50
2015,01,29,10,10,5.50
2015,01,29,10,11,5.60
2015,01,29,10,12,5.60
2015,01,29,10,13,5.60
2015,01,29,10,14,5.60
2015,01,29,10,15,5.60
2015,01,29,10,16,5.60
2015,01,29,10,17,5.70
2015,01,29,10,18,5.70
2015,01,29,10,19,5.70
2015,01,29,10,20,5.70
2015,01,29,10,21,5.70
2015,01,29,10,22,5.70
2015,01,29,10,23,5.70
2015,01,29,10,24,5.80
2015,01,29,10,25,5.80
2015,01,29,10,26,5.80
2015,01,29,10,27,5.80
2015,01,29,10,28,5.80
2015,01,29,10,29,5.90
2015,01,29,10,30,5.90
2015,01,29,10,31,5.90
2015,01,29,10,32,6.00
2015,01,29,10,33,6.00
2015,01,29,10,34,6.00
2015,01,29,10,35,6.00
2015,01,29,10,36,6.10
2015,01,29,10,37,6.10
2015,01,29,10,38,6.10
2015,01,29,10,39,6.10
2015,01,29,10,40,6.10
2015,01,29,10,41,6.10
2015,01,29,10,42,6.10
2015,01,29,10,43,6.10
2015,01,29,10,44,6.20
2015,01,29,10,45,6.20
2015,01,29,10,46,6.20
2015,01,29,10,47,6.20
2015,01,29,10,48,6.20
2015,01,29,10,49,6.20
2015,01,29,10,50,6.30
2015,01,29,10,51,6.30
2015,01,29,10,52,6.30
2015,01,29,10,53,6.40
2015,01,29,10,54,6.40
2015,01,29,10,55,6.50
2015,01,29,10,56,6.50
2015,01,29,10,57,6.50
2015,01,29,10,58,6.60
2015,01,29,10,59,6.60
2015,01,29,11,00,6.60
2015,01,29,11,01,6.60
2015,01,29,11,02,6.60
2015,01,29,11,03,6.70
2015,01,29,11,04,6.70
2015,01,29,11,05,6.70
2015,01,29,11,06,6.70
2015,01,29,11,07,6.70
2015,01,29,11,08,6.70
2015,01,29,11,09,6.70
2015,01,29,11,10,6.70
2015,01,29,11,11,6.70
2015,01,29,11,12,6.70
2015,01,29,11,13,6.80
2015,01,29,11,14,6.80
2015,01,29,11,15,6.80
2015,01,29,11,16,6.80
2015,01,29,11,17,6.80
2015,01,29,11,18,6.90
2015,01,29,11,19,6.90
2015,01,29,11,20,6.90
2015,01,29,11,21,7.00
2015,01,29,11,22,7.00
2015,01,29,11,23,7.00
2015,01,29,11,24,7.00
2015,01,29,11,25,7.10
2015,01,29,11,26,7.10
2015,01,29,11,27,7.10
2015,01,29,11,28,7.10
2015,01,29,11,29,7.10
2015,01,29,11,30,7.10
2015,01,29,11,31,7.10
2015,01,29,11,32,7.10
2015,01,29,11,33,7.10
2015,01,29,11,34,7.10
2015,01,29,11,35,7.10
2015,01,29,11,36,7.10
2015,01,29,11,37,7.10
2015,01,29,11,38,7.10
2015,01,29,11,39,7.10
2015,01,29,11,40,7.20
2015,01,29,11,41,7.20
2015,01,29,11,42,7.20
2015,01,29,11,43,7.20
2015,01,29,11,44,7.20
2015,01,29,11,45,7.20
2015,01,29,11,46,7.20
2015,01,29,11,47,7.20
2015,01,29,11,48,7.20
2015,01,29,11,49,7.20
2015,01,29,11,50,7.20
2015,01,29,11,51,7.20
2015,01,29,11,52,7.30
2015,01,29,11,53,7.30
2015,01,29,11,54,7.30
2015,01,29,11,55,7.30
2015,01,29,11,56,7.40
2015,01,29,11,57,7.40
2015,01,29,11,58,7.40
2015,01,29,11,59,7.40
2015,01,29,12,00,7.50
2015,01,29,12,01,7.50
2015,01,29,12,02,7.50
2015,01,29,12,03,7.50
2015,01,29,12,04,7.50
2015,01,29,12,05,7.60
2015,01,29,12,06,7.60
2015,01,29,12,07,7.60
2015,01,29,12,08,7.60
2015,01,29,12,09,7.70
2015,01,29,12,10,7.70
2015,01,29,12,11,7.70
2015,01,29,12,12,7.70
2015,01,29,12,13,7.70
2015,01,29,12,14,7.70
2015,01,29,12,15,7.70
2015,01,29,12,16,7.70
2015,01,29,12,17,7.70
2015,01,29,12,18,7.80
2015,01,29,12,19,7.80
2015,01,29,12,20,7.80
2015,01,29,12,21,7.90
2015,01,29,12,22,7.90
2015,01,29,12,23,7.90
2015,01,29,12,24,8.00
2015,01,29,12,25,8.10
2015,01,29,12,26,8.10
2015,01,29,12,27,8.10
2015,01,29,12,28,8.20
2015,01,29,12,29,8.20
2015,01,29,12,30,8.20
2015,01,29,12,31,8.20
2015,01,29,12,32,8.20
2015,01,29,12,33,8.30
2015,01,29,12,34,8.30
2015,01,29,12,35,8.30
2015,01,29,12,36,8.30
2015,01,29,12,37,8.30
2015,01,29,12,38,8.30
2015,01,29,12,39,8.30
2015,01,29,12,40,8.30
2015,01,29,12,41,8.30
2015,01,29,12,42,8.30
2015,01,29,12,43,8.40
2015,01,29,12,44,8.40
2015,01,29,12,45,8.40
2015,01,29,12,46,8.40
2015,01,29,12,47,8.40
2015,01,29,12,48,8.40
2015,01,29,12,49,8.40
2015,01,29,12,50,8.40
2015,01,29,12,51,8.50
2015,01,29,12,52,8.50
2015,01,29,12,53,8.50
2015,01,29,12,54,8.60
2015,01,29,12,55,8.60
2015,01,29,12,56,8.60
2015,01,29,12,57,8.70
2015,01,29,12,58,8.70
2015,01,29,12,59,8.70
2015,01,29,13,00,8.70
2015,01,29,13,01,8.70
2015,01,29,13,02,8.70
2015,01,29,13,03,8.80
2015,01,29,13,04,8.80
2015,01,29,13,05,8.80
2015,01,29,13,06,8.90
2015,01,29,13,07,8.90
2015,01,29,13,08,8.90
2015,01,29,13,09,9.00
2015,01,29,13,10,9.00
2015,01,29,13,11,9.00
2015,01,29,13,12,9.00
2015,01,29,13,13,9.00
2015,01,29,13,14,9.00
2015,01,29,13,15,9.00
2015,01,29,13,16,9.00
2015,01,29,13,17,9.00
2015,01,29,13,18,9.00
2015,01,29,13,19,9.10
2015,01,29,13,20,9.10
2015,01,29,13,21,9.10
2015,01,29,13,22,9.10
2015,01,29,13,23,9.10
2015,01,29,13,24,9.10
2015,01,29,13,25,9.10
2015,01,29,13,26,9.20
2015,01,29,13,27,9.20
2015,01,29,13,28,9.20
2015,01,29,13,29,9.20
2015,01,29,13,30,9.20
2015,01,29,13,31,9.20
2015,01,29,13,32,9.20
2015,01,29,13,33,9.20
2015,01,29,13,34,9.20
2015,01,29,13,35,9.20
2015,01,29,13,36,9.30
2015,01,29,13,37,9.30
2015,01,29,13,38,9.40
2015,01,29,13,39,9.40
2015,01,29,13,40,9.40
2015,01,29,13,41,9.50
2015,01,29,13,42,9.50
2015,01,29,13,43,9.50
2015,01,29,13,44,9.60
2015,01,29,13,45,9.60
2015,01,29,13,46,9.70
2015,01,29,13,47,9.70
2015,01,29,13,48,9.80
2015,01,29,13,49,9.70
2015,01,29,13,50,9.70
2015,01,29,13,51,9.70
2015,01,29,13,52,9.60
2015,01,29,13,53,9.60
2015,01,29,13,54,9.50
2015,01,29,13,55,9.40
2015,01,29,13,56,9.40
2015,01,29,13,57,9.30
2015,01,29,13,58,9.30
2015,01,29,13,59,9.30
2015,01,29,14,00,9.20
2015,01,29,14,01,9.30
2015,01,29,14,02,9.30
2015,01,29,14,03,9.30
2015,01,29,14,04,9.30
2015,01,29,14,05,9.20
2015,01,29,14,06,9.20
2015,01,29,14,07,9.20
2015,01,29,14,08,9.20
2015,01,29,14,09,9.30
2015,01,29,14,10,9.30
2015,01,29,14,11,9.30
2015,01,29,14,12,9.40
2015,01,29,14,13,9.40
2015,01,29,14,14,9.50
2015,01,29,14,15,9.50
2015,01,29,14,16,9.60
2015,01,29,14,17,9.60
2015,01,29,14,18,9.70
2015,01,29,14,19,9.70
2015,01,29,14,20,9.70
2015,01,29,14,21,9.70
2015,01,29,14,22,9.70
2015,01,29,14,23,9.70
2015,01,29,14,24,9.60
2015,01,29,14,25,9.60
2015,01,29,14,26,9.60
2015,01,29,14,27,9.50
2015,01,29,14,28,9.40
2015,01,29,14,29,9.40
2015,01,29,14,30,9.40
2015,01,29,14,31,9.40
2015,01,29,14,32,9.40
2015,01,29,14,33,9.40
2015,01,29,14,34,9.40
2015,01,29,14,35,9.40
2015,01,29,14,36,9.40
2015,01,29,14,37,9.30
2015,01,29,14,38,9.30
2015,01,29,14,39,9.30
2015,01,29,14,40,9.30
2015,01,29,14,41,9.30
2015,01,29,14,42,9.30
2015,01,29,14,43,9.30
2015,01,29,14,44,9.30
2015,01,29,14,45,9.40
2015,01,29,14,46,9.40
2015,01,29,14,47,9.40
2015,01,29,14,48,9.40
2015,01,29,14,49,9.50
2015,01,29,14,50,9.50
2015,01,29,14,51,9.60
2015,01,29,14,52,9.60
2015,01,29,14,53,9.60
2015,01,29,14,54,9.60
2015,01,29,14,55,9.50
2015,01,29,14,56,9.50
2015,01,29,14,57,9.50
2015,01,29,14,58,9.50
2015,01,29,14,59,9.50
2015,01,29,15,00,9.60
2015,01,29,15,01,9.60
2015,01,29,15,02,9.60
2015,01,29,15,03,9.60
2015,01,29,15,04,9.60
2015,01,29,15,05,9.60
2015,01,29,15,06,9.60
2015,01,29,15,07,9.60
2015,01,29,15,08,9.60
2015,01,29,15,09,9.60
2015,01,29,15,10,9.60
2015,01,29,15,11,9.60
2015,01,29,15,12,9.70
2015,01,29,15,13,9.70
2015,01,29,15,14,9.70
2015,01,29,15,15,9.70
2015,01,29,15,16,9.70
2015,01,29,15,17,9.70
2015,01,29,15,18,9.70
2015,01,29,15,19,9.70
2015,01,29,15,20,9.70
2015,01,29,15,21,9.70
2015,01,29,15,22,9.70
2015,01,29,15,23,9.70
2015,01,29,15,24,9.60
2015,01,29,15,25,9.60
2015,01,29,15,26,9.60
2015,01,29,15,27,9.60
2015,01,29,15,28,9.60
2015,01,29,15,29,9.70
2015,01,29,15,30,9.60
2015,01,29,15,31,9.60
2015,01,29,15,32,9.60
2015,01,29,15,33,9.60
2015,01,29,15,34,9.60
2015,01,29,15,35,9.60
2015,01,29,15,36,9.60
2015,01,29,15,37,9.70
2015,01,29,15,38,9.70
2015,01,29,15,39,9.70
2015,01,29,15,40,9.70
2015,01,29,15,41,9.70
2015,01,29,15,42,9.70
2015,01,29,15,43,9.70
2015,01,29,15,44,9.60
2015,01,29,15,45,9.60
2015,01,29,15,46,9.60
2015,01,29,15,47,9.60
2015,01,29,15,48,9.60
2015,01,29,15,49,9.50
2015,01,29,15,50,9.50
2015,01,29,15,51,9.50
2015,01,29,15,52,9.40
2015,01,29,15,53,9.40
2015,01,29,15,54,9.40
2015,01,29,15,55,9.40
2015,01,29,15,56,9.40
2015,01,29,15,57,9.30
2015,01,29,15,58,9.30
2015,01,29,15,59,9.30
2015,01,29,16,00,9.40
2015,01,29,16,01,9.40
2015,01,29,16,02,9.40
2015,01,29,16,03,9.40
2015,01,29,16,04,9.40
2015,01,29,16,05,9.40
2015,01,29,16,06,9.40
2015,01,29,16,07,9.30
2015,01,29,16,08,9.30
2015,01,29,16,09,9.30
2015,01,29,16,10,9.30
2015,01,29,16,11,9.30
2015,01,29,16,12,9.30
2015,01,29,16,13,9.20
2015,01,29,16,14,9.20
2015,01,29,16,15,9.20
2015,01,29,16,16,9.20
2015,01,29,16,17,9.20
2015,01,29,16,18,9.20
2015,01,29,16,19,9.10
2015,01,29,16,20,9.10
2015,01,29,16,21,9.10
2015,01,29,16,22,9.10
2015,01,29,16,23,9.00
2015,01,29,16,24,9.10
2015,01,29,16,25,9.10
2015,01,29,16,26,9.10
2015,01,29,16,27,9.10
2015,01,29,16,28,9.00
2015,01,29,16,29,9.00
2015,01,29,16,30,9.00
2015,01,29,16,31,8.90
2015,01,29,16,32,8.90
2015,01,29,16,33,8.90
2015,01,29,16,34,8.90
2015,01,29,16,35,8.80
2015,01,29,16,36,8.80
2015,01,29,16,37,8.70
2015,01,29,16,38,8.70
2015,01,29,16,39,8.60
2015,01,29,16,40,8.50
2015,01,29,16,41,8.40
2015,01,29,16,42,8.40
2015,01,29,16,43,8.30
2015,01,29,16,44,8.30
2015,01,29,16,45,8.20
2015,01,29,16,46,8.20
2015,01,29,16,47,8.20
2015,01,29,16,48,8.10
2015,01,29,16,49,8.10
2015,01,29,16,50,8.10
2015,01,29,16,51,8.00
2015,01,29,16,52,8.00
2015,01,29,16,53,8.00
2015,01,29,16,54,7.90
2015,01,29,16,55,7.90
2015,01,29,16,56,7.90
2015,01,29,16,57,7.80
2015,01,29,16,58,7.80
2015,01,29,16,59,7.80
2015,01,29,17,00,7.80
2015,01,29,17,01,7.80
2015,01,29,17,02,7.70
2015,01,29,17,03,7.70
2015,01,29,17,04,7.70
2015,01,29,17,05,7.60
2015,01,29,17,06,7.60
2015,01,29,17,07,7.60
2015,01,29,17,08,7.60
2015,01,29,17,09,7.50
2015,01,29,17,10,7.50
2015,01,29,17,11,7.50
2015,01,29,17,12,7.40
2015,01,29,17,13,7.40
2015,01,29,17,14,7.40
2015,01,29,17,15,7.40
2015,01,29,17,16,7.40
2015,01,29,17,17,7.30
2015,01,29,17,18,7.30
2015,01,29,17,19,7.30
2015,01,29,17,20,7.30
2015,01,29,17,21,7.30
2015,01,29,17,22,7.20
2015,01,29,17,23,7.20
2015,01,29,17,24,7.20
2015,01,29,17,25,7.20
2015,01,29,17,26,7.20
2015,01,29,17,27,7.10
2015,01,29,17,28,7.10
2015,01,29,17,29,7.10
2015,01,29,17,30,7.00
2015,01,29,17,31,7.00
2015,01,29,17,32,7.00
2015,01,29,17,33,6.90
2015,01,29,17,34,6.90
2015,01,29,17,35,6.90
2015,01,29,17,36,6.90
2015,01,29,17,37,6.90
2015,01,29,17,38,6.90
2015,01,29,17,39,6.90
2015,01,29,17,40,6.90
2015,01,29,17,41,6.90
2015,01,29,17,42,7.00
2015,01,29,17,43,7.00
2015,01,29,17,44,7.00
2015,01,29,17,45,7.00
2015,01,29,17,46,7.00
2015,01,29,17,47,7.00
2015,01,29,17,48,7.00
2015,01,29,17,49,6.90
2015,01,29,17,50,6.90
2015,01,29,17,51,6.80
2015,01,29,17,52,6.80
2015,01,29,17,53,6.80
2015,01,29,17,54,6.80
2015,01,29,17,55,6.70
2015,01,29,17,56,6.70
2015,01,29,17,57,6.70
2015,01,29,17,58,6.70
2015,01,29,17,59,6.70
2015,01,29,18,00,6.60
2015,01,29,18,01,6.60
2015,01,29,18,02,6.60
2015,01,29,18,03,6.50
2015,01,29,18,04,6.50
2015,01,29,18,05,6.50
2015,01,29,18,06,6.40
2015,01,29,18,07,6.40
2015,01,29,18,08,6.30
2015,01,29,18,09,6.30
2015,01,29,18,10,6.30
2015,01,29,18,11,6.20
2015,01,29,18,12,6.20
2015,01,29,18,13,6.20
2015,01,29,18,14,6.10
2015,01,29,18,15,6.10
2015,01,29,18,16,6.10
2015,01,29,18,17,6.00
2015,01,29,18,18,6.00
2015,01,29,18,19,5.90
2015,01,29,18,20,5.90
2015,01,29,18,21,5.90
2015,01,29,18,22,5.80
2015,01,29,18,23,5.80
2015,01,29,18,24,5.80
2015,01,29,18,25,5.80
2015,01,29,18,26,5.80
2015,01,29,18,27,5.80
2015,01,29,18,28,5.80
2015,01,29,18,29,5.80
2015,01,29,18,30,5.80
2015,01,29,18,31,5.80
2015,01,29,18,32,5.80
2015,01,29,18,33,5.80
2015,01,29,18,34,5.70
2015,01,29,18,35,5.70
2015,01,29,18,36,5.70
2015,01,29,18,37,5.70
2015,01,29,18,38,5.70
2015,01,29,18,39,5.70
2015,01,29,18,40,5.70
2015,01,29,18,41,5.70
2015,01,29,18,42,5.70
2015,01,29,18,43,5.70
2015,01,29,18,44,5.70
2015,01,29,18,45,5.70
2015,01,29,18,46,5.70
2015,01,29,18,47,5.70
2015,01,29,18,48,5.70
2015,01,29,18,49,5.70
2015,01,29,18,50,5.70
2015,01,29,18,51,5.70
2015,01,29,18,52,5.70
2015,01,29,18,53,5.80
2015,01,29,18,54,5.80
2015,01,29,18,55,5.80
2015,01,29,18,56,5.80
2015,01,29,18,57,5.80
2015,01,29,18,58,5.80
2015,01,29,18,59,5.80
2015,01,29,19,00,5.80
2015,01,29,19,01,5.80
2015,01,29,19,02,5.80
2015,01,29,19,03,5.80
2015,01,29,19,04,5.80